This is the latest recevied weather packets stored in our database for station/object N7CW. If no packets are shown the sender has not sent any weather packets the latest 10 day(s).
| Time | Temp. | Humidity | Pressure | Rain* | Wind** | Luminosity | Snow |
|---|---|---|---|---|---|---|---|
| 1777576515 | 19.44° C | 21% | 1014.4 hPa | 0 mm | - | 869 W/m² | - |
| 1777576212 | 19.44° C | 21% | 1014.5 hPa | 0 mm | - | 700 W/m² | - |
| 1777574693 | 18.89° C | 22% | 1014.8 hPa | 0 mm | - | 822 W/m² | - |
| 1777574084 | 18.33° C | 21% | 1014.7 hPa | 0 mm | - | 805 W/m² | - |
| 1777573780 | 18.89° C | 21% | 1015.3 hPa | 0 mm | - | 800 W/m² | - |
| 1777573476 | 19.44° C | 21% | 1015.2 hPa | 0 mm | - | 798 W/m² | - |
| 1777573173 | 20° C | 20% | 1015.3 hPa | 0 mm | - | 796 W/m² | - |
| 1777572869 | 18.33° C | 21% | 1015.2 hPa | 0 mm | - | 791 W/m² | - |
| 1777571349 | 17.78° C | 23% | 1015.5 hPa | 0 mm | - | 758 W/m² | - |
| 1777570741 | 18.33° C | 23% | 1015.5 hPa | 0 mm | - | 742 W/m² | - |
| 1777570133 | 17.22° C | 23% | 1015.9 hPa | 0 mm | - | 724 W/m² | - |
| 1777569829 | 17.22° C | 23% | 1015.7 hPa | 0 mm | - | 715 W/m² | - |
| 1777569525 | 17.78° C | 22% | 1015.8 hPa | 0 mm | - | 704 W/m² | - |
| 1777566495 | 16.67° C | 24% | 1015.5 hPa | 0 mm | - | 581 W/m² | - |
| 1777564065 | 15.56° C | 25% | 1015.7 hPa | 0 mm | - | 462 W/m² | - |
| 1777563151 | 16.11° C | 25% | 1015.8 hPa | 0 mm | - | 412 W/m² | - |
| 1777562545 | 15.56° C | 25% | 1015.9 hPa | 0 mm | - | 380 W/m² | - |
| 1777559517 | 15° C | 25% | 1015.9 hPa | 0 mm | - | 229 W/m² | - |
| 1777558306 | 13.89° C | 29% | 1015.9 hPa | 0 mm | - | 144 W/m² | - |
| 1777558003 | 12.78° C | 30% | 1015.8 hPa | 0 mm | - | 130 W/m² | - |
| 1777556184 | 9.44° C | 30% | 1015.5 hPa | 0 mm | - | 53 W/m² | - |
| 1777555273 | 8.33° C | 31% | 1015.4 hPa | 0 mm | - | 29 W/m² | - |
| 1777554666 | 6.67° C | 33% | 1015.5 hPa | 0 mm | - | 22 W/m² | - |
| 1777554363 | 6.11° C | 34% | 1015.4 hPa | 0 mm | - | 18 W/m² | - |
| 1777553756 | 5.56° C | 36% | 1015.3 hPa | 0 mm | - | 12 W/m² | - |
* Rain latest hour (hover to see other rain measurements)
** Current wind speed in m/s (hover to see current wind gust speed)